Regional Weather Roundup
Issued by NWS

Home | Current Version | Previous Version | Graphics & Text | Print | Product List | Glossary On
Versions: 1 2 3 4 5 6 7 8 9 10 11 12 13 14 15 16 17 18 19 20 21 22 23 24 25 26 27 28 29 30 31 32 33 34 35 36 37 38 39 40 41 42 43 44 45 46 47 48 49 50
000
ASUS43 KMKX 221000
RWRWI

WISCONSIN REGIONAL WEATHER ROUNDUP
NATIONAL WEATHER SERVICE MILWAUKEE/SULLIVAN WI
400 AM CST SUN JAN 22 2017

NOTE: "FAIR" INDICATES FEW OR NO CLOUDS BELOW 12,000 FEET WITH NO
SIGNIFICANT WEATHER AND/OR OBSTRUCTIONS TO VISIBILITY.

WIZ001-002-006>008-014>016-023>028-221100-
NORTHWEST WISCONSIN

CITY           SKY/WX    TMP DP  RH WIND       PRES   REMARKS
SUPERIOR ARPT  CLOUDY    35  35 100 N3        29.60S FOG
ASHLAND        CLOUDY    34  34 100 CALM      29.57S FOG
HAYWARD        FOG       34  33  96 CALM      29.57R VSB 1/2
SIREN          CLOUDY    34  34  99 CALM      29.59R
CUMBERLAND     CLOUDY    32  32 100 N7        29.56R FOG     WCI  26
RICE LAKE      FOG       34  34 100 NW3       29.57S VSB 1
CHETEK         FOG       34  34 100 CALM      29.56S VSB 3/4
LADYSMITH      FOG       35  34  98 CALM      29.56S VSB 1/2
EAU CLAIRE     FOG       34  32  92 CALM      29.56S VSB 3/4
MENOMONIE        N/A    N/A N/A N/A MISG        N/A
NEW RICHMOND   CLOUDY    34  34 100 N3        29.58R FOG
OSCEOLA        CLOUDY    34  34 100 N3        29.61R FOG
$$

WIZ003>005-009-010-017-018-221100-
NORTH CENTRAL WISCONSIN

CITY           SKY/WX    TMP DP  RH WIND       PRES   REMARKS
MANITOWISH WTR FOG       33  33 100 CALM      29.53S VSB 1/4
ARBOR VITAE    FOG       37  36  97 CALM      29.53S VSB 1/4
WOODRUFF       FOG       37  36  97 CALM      29.53S VSB 1/4
RHINELANDER    FOG       35  35 100 CALM      29.53S VSB 1/4
EAGLE RIVER    DRZL/FOG  33  33 100 CALM      29.53S VSB 1/4
LAND O LAKES   FOG       34  34 100 CALM      29.55R VSB 1/2
PHILLIPS       FOG       34  34 100 CALM      29.53S VSB 1/2
TOMAHAWK       FOG       33  33  98 CALM      29.55R VSB 1/2
MEDFORD        FOG       33  33  99 CALM      29.53S VSB 1/4
MERRILL        FOG       34  34 100 CALM        N/A  VSB 1/2
$$

WIZ029-030-035-036-043>047-221100-
CENTRAL WISCONSIN

CITY           SKY/WX    TMP DP  RH WIND       PRES   REMARKS
WAUSAU         FOG       35  35 100 CALM      29.53S VSB 1/2
MOSINEE        FOG       34  34 100 CALM      29.55S VSB 1/4
MARSHFIELD     FOG       35  32  88 W3        29.53S VSB 1/4
STEVENS POINT  FOG       33  33 100 CALM      29.55S VSB 1/4
WAUPACA        FOG       38  37  97 CALM      29.56S VSB 1/4
WAUTOMA        CLOUDY    37  36  96 W6        29.57S FOG     WCI  32
WISC RAPIDS    FOG       37  37 100 SW3       29.56S VSB 1/2
CAMP DOUGLAS   CLOUDY    36  34  93 CALM      29.56R FOG
$$

WIZ011>013-019>022-031-037>040-048>050-221100-
NORTHEAST WISCONSIN

CITY           SKY/WX    TMP DP  RH WIND       PRES   REMARKS
ANTIGO         FOG       33  33 100 CALM      29.53S VSB 1/4
SHAWANO        FOG       35  34  96 CALM      29.56S VSB 1/4
OCONTO         CLOUDY    33  33  99 CALM      29.56S VSB 1/4
STURGEON BAY   FOG       37  36  96 CALM      29.57S VSB 1/4
GREEN BAY      FOG       36  36 100 CALM      29.56S VSB 1/4
MANITOWOC      NOT AVBL
APPLETON       FOG       36  36 100 SW3       29.54S VSB 1/4
CLINTONVILLE   FOG       34  32  93 CALM      29.56S VSB 1/4
OSHKOSH        FOG       37  36  96 CALM      29.55S VSB 1/2
$$

WIZ032>034-041-042-053>061-221100-
SOUTHWEST WISCONSIN

CITY           SKY/WX    TMP DP  RH WIND       PRES   REMARKS
LA CROSSE      CLOUDY    40  37  89 SW3       29.57R FOG
SPARTA         FOG       35  35 100 CALM      29.57S VSB 1
VIROQUA        CLOUDY    35  35 100 W6        29.55S VSB 1/4 WCI  30
BOSCOBEL       CLOUDY    38  36  92 SW5       29.58S FOG     WCI  34
PRAIRIE DU CHI CLOUDY    35  34  96 CALM      29.58S FOG
PLATTEVILLE    CLOUDY    34  34 100 W3        29.57F VSB<1/4
$$

WIZ056-057-062-063-064-067-068-221100-
SOUTH CENTRAL WISCONSIN

CITY           SKY/WX    TMP DP  RH WIND       PRES   REMARKS
REEDSBURG      CLOUDY    37  37 100 CALM      29.56S FOG
BARABOO/DELLS  FOG       38  37  99 CALM      29.56S VSB 1/4
LONE ROCK      CLOUDY    37  35  92 S3        29.58S FOG
MINERAL POINT  FOG       37  37 100 W7        29.56S VSB 1/4 WCI  32
MADISON        FOG       38  38 100 CALM      29.57S VSB 1/2
MIDDLETON      CLOUDY    40  40 100 CALM      29.56F
WATERTOWN      CLOUDY    38  38 100 CALM      29.56F FOG
MONROE         FOG       36  36 100 W8        29.57R VSB 1/4 WCI  29
JANESVILLE     FOG       37  37 100 S3        29.58R VSB 3/4
$$

WIZ051-052-058>065-066-070>072-221100-
SOUTHEAST WISCONSIN

CITY           SKY/WX    TMP DP  RH WIND       PRES   REMARKS
MILWAUKEE      CLOUDY    42  40  92 CALM      29.57S
WAUKESHA       CLOUDY    37  37 100 CALM      29.57F FOG
MILWAUKEE/TIMM CLOUDY    39  36  87 CALM      29.58S FOG
RACINE         FOG       37  35  92 CALM      29.59S VSB 1/2
KENOSHA        FOG       40  38  93 CALM      29.57S VSB 1/4
FOND DU LAC    FOG       39  37  92 S5        29.56S VSB 1/4
SHEBOYGAN      CLOUDY    38  38 100 CALM      29.57S FOG
WEST BEND      CLOUDY    39  39 100 SW3       29.57S FOG
JUNEAU         FOG       37  37  99 CALM      29.57S VSB<1/4
$$

LSZ147-162-221100-
LAKE SUPERIOR

STATION/POSITION TIME  TEMP    WIND        PRES    WAVE
                       AIR SEA DIR/SP/G            HT/PER
                 (UTC) (F)     (DEG/KT/KT) (MB)    (FT/S)
DEVILS ISLAND    0900   36      30/ 11/ 11 1001.9R
PORT WING        0940   35      20/  4/  5 1002.4R
SAXON HARBOR     0930   33     230/  1/  1 1001.4S
$$

LMZ867-665-643>646-221100-
LAKE MICHIGAN

STATION/POSITION TIME  TEMP    WIND        PRES    WAVE
                       AIR SEA DIR/SP/G            HT/PER
                 (UTC) (F)     (DEG/KT/KT) (MB)    (FT/S)
NORTHPORT PIER   0930   37     290/  2/  4 1001.4S
SISTER BAY       0905   36        CALM       N/A
KEWAUNEE LAKESHO 0930   37      CALM  /  3 1001.1R
SHEBOYGAN LAKESH 0900   40     220/  7/  7 1001.5S
PORT WASHINGTON  0940   38      CALM  /  3 1002.4F
KENOSHA   LAKESH 0900   39     200/  4/  5 1002.0
$$

TC  - TEMPERATURE IN CELSIUS
VSB - VISIBILITY IN STATUTE MILES
WCI - WIND CHILL INDEX
HX  - HEAT INDEX




USA.gov is the U.S. government's official web portal to all federal, state and local government web resources and services.